Погода в Чильпансинго-де-лос-Браво

Мексика     17°33′07″N   99°30′10″W
темп.,
°C
ветер,
м/с
пор.,
м/с
влажн.,
%
обл.,
%
осадки,
мм/ч
давл.,
гПа
погр.,
м
5 мая, ср
ср501:00+15ююз12789 0.0 101650
04:00+15ююз117514 0.0 101625
07:00+15зюз117218 0.0 101722
10:00+24всв11339 0.0 1015693
13:00+30ююв242673 0.0 10122317
16:00+26ююз333680 0.4 10121349
19:00+22ю445111 0.6 1013979
22:00+17ююз227176 0.1 101768
6 мая, чт
чт601:00+17всв017037 0.3 101943
04:00+16ссв2382100 2.8 1018166
07:00+17с248296 4.2 1017158
10:00+21ссв345682 0.0 1017630
13:00+28св223679 0.0 10152054
16:00+27ю333795 0.1 10111875
19:00+21ююз346616 0.7 1014712
22:00+17ююз239057 0.4 1017321
7 мая, пт
пт701:00+18юз118299 0.8 1017134
04:00+16ссв118733 0.2 101616
07:00+16с228716 1.1 101742
10:00+22ссв235434 0.1 10171002
13:00+28св232527 0.1 10152279
16:00+30всв222055 0.0 10112904
19:00+24ю43465 0.0 1012851
22:00+17ююз348533 0.1 1016285
8 мая, сб
сб801:00+17ю2394100 0.1 1017299
04:00+16ю1193100 0.0 101533
07:00+16зюз0189100 0.0 101611
10:00+23вюв115099 0.0 1015826
13:00+28ююв223459 0.0 10132395
16:00+25ююз444621 0.0 10111099
19:00+21ю446439 0.0 1012873
22:00+18ююз348024 0.0 1016435
9 мая, вс
вс901:00+16ююз239199 0.0 1017192
04:00+15ююз129182 0.0 101571
07:00+15юз1180100 0.0 101626
10:00+22ю2252100 0.0 1015704
13:00+27ю3239100 0.0 10131959
16:00+26ю434399 0.0 10111723
19:00+21ююз346473 0.1 1012825
22:00+18ююз348527 0.2 1015347